STARLINK-1403 (45701 NORAD) Tracking and Keplerian Element Data

This shows tracking and keplerian element data for the satellite.

Feedback or suggestion? Click here.




ElementValue
Catalog45701
NameSTARLINK-1403
Epoch Orbit1080
Epoch Day219.25001157
Epoch Year2020
RAAN219.6994
Inclination52.9999
Eccentricity0.0001754
Argument of Perigee52.7387
Mean Anonmoly284.6589
Mean Motion15.62744596
Decay Rate-0.00015922
L11 45701U 20035AW 20219.25001157 -.00015922 00000-0 -16843-3 0 9998
L22 45701 52.9999 219.6994 0001754 52.7387 284.6589 15.62744596 10801

Live tracking and technical data element details for STARLINK-1403 (NORAD 45701). STARLINK-1403 can be tracked NOW for your location showing map with azimuth and elevation plus other details from your city location.

Track the satellite on the map from your city or location and see movement details for azimuth, elevation, latitude, longitude, range, height, and movement on the map or in text.







IsCatalogInMostPopularTable: catalog: 45701, numindb: 12
Update: records affected: 1



GetName: 45701 STARLINK-1403

Hit Count: updated at: Fri, 07 Aug 2020 23:30:41 GMT